Location: Unspecified
(42.7170°S, 0.0000°E)
Time: 02:38:18
(UTC+00:00)

ISS - Visible Passes

Search period start: 23 May 2019 00:00
Search period end: 02 June 2019 00:00
Orbit: 407 x 410 km, 51.6° (Epoch: 23 May)

Date Brightness Start Highest point End Pass type
(mag) Time Alt. Az. Time Alt. Az. Time Alt. Az.
23 May -2.0 06:38:23 10° NNW 06:41:30 36° NE 06:44:39 10° ESE visible
24 May -1.1 05:48:09 10° N 05:50:43 21° NE 05:53:19 10° E visible
25 May -0.6 04:58:47 10° NNE 05:00:01 12° NE 05:01:14 10° ENE visible
25 May -3.7 06:32:44 10° NW 06:36:06 90° N 06:39:30 10° ESE visible
26 May -2.9 05:42:30 14° NW 05:45:11 50° NE 05:48:29 10° ESE visible
27 May -1.8 04:54:35 27° NE 04:54:35 27° NE 04:57:16 10° ESE visible
27 May -3.3 06:27:34 10° W 06:30:48 43° SSW 06:34:04 10° SE visible
28 May -3.8 05:39:09 53° W 05:39:46 69° SSW 05:43:09 10° SE visible
29 May -1.5 04:50:42 23° ESE 04:50:42 23° ESE 04:52:09 10° ESE visible
29 May -2.5 06:23:28 15° WSW 06:25:36 26° SSW 06:28:32 10° SE visible
30 May -2.8 05:34:52 34° S 05:34:52 34° S 05:37:37 10° SE visible
31 May -0.8 04:46:07 14° SE 04:46:07 14° SE 04:46:41 10° SE visible
31 May -2.0 06:18:52 15° SW 06:20:28 20° S 06:23:03 10° SE visible
01 Jun -1.9 05:30:02 21° S 05:30:02 21° S 05:32:01 10° SE visible
